Regional Weather Roundup
Issued by NWS Charleston, SC

Current Version | Previous Version | Text Only | Print | Product List | Glossary Off
Versions: 1 2 3 4 5 6 7 8 9 10 11 12 13 14 15 16 17 18 19 20 21 22 23 24 25 26 27 28 29 30 31 32 33 34 35 36 37 38 39 40 41 42 43 44 45 46 47 48 49 50
000 ASUS42 KCHS 280828 RWRCHS REGIONAL WEATHER ROUNDUP NATIONAL WEATHER SERVICE CHARLESTON SC 400 AM EDT SUN AUG 28 2016 NOTE: "FAIR" INDICATES FEW OR NO CLOUDS BELOW 12,000 FEET WITH NO SIGNIFICANT WEATHER AND/OR OBSTRUCTIONS TO VISIBILITY. NOT ALL STATIONS ARE QUALITY CONTROLLED. USE DATA WITH CAUTION... ESPECIALLY DEWPOINT OBSERVATIONS. SCZ027-030-031-034>040-042>050-280900- ...SOUTHEAST SOUTH CAROLINA... CITY SKY/WX TMP DP RH WIND PRES REMARKS N CHARLESTON CLEAR 76 72 87 NE7 30.07S WATERFRONT PRK N/A 80 76 87 N8 30.04F MOUNT PLEASANT FAIR 75 73 94 CALM 30.07S JOHNS ISLAND FAIR 77 75 94 CALM 30.07R PINOPOLIS N/A 79 75 89 NE9 30.01F MONCKS CORNER FAIR 73 72 94 NE5 30.08S SUMMERVILLE FAIR 73 73 100 CALM 30.08F BEAUFORT MCAS CLEAR 75 73 93 NE6 30.06F BEAUFORT ARPT FAIR 77 73 88 NE5 30.06R HILTON HEAD IS CLEAR 81 75 83 N5 30.06S WALTERBORO SUNNY 75 75 100 CALM 30.08S ALLENDALE PTSUNNY 75 72 88 CALM 30.08R ...SOUTHERN MIDLANDS AND PEE DEE... CITY SKY/WX TMP DP RH WIND PRES REMARKS GEORGETOWN FAIR 73 72 94 CALM 30.09S KINGSTREE FAIR 72 68 88 CALM 30.09S ORANGEBURG PTCLDY 74 71 91 NE3 30.09F BARNWELL NOT AVBL AIKEN PTSUNNY 72 66 83 CALM 30.15R MANNING FAIR 72 70 94 CALM 30.09F COLUMBIA PTCLDY 79 70 74 NE3 30.09F SUMTER PTCLDY 75 72 90 NE5 30.08F FLORENCE CLEAR 76 73 91 NE3 30.11F MYRTLE BEACH CLEAR 79 66 65 N7 30.10F N MYRTLE BEACH PTCLDY 75 73 93 NE3 30.08F $$ GAZ063-065-086>088-099>101-113>116-118-119-134>141-150-280900- ...SOUTHEAST GEORGIA... CITY SKY/WX TMP DP RH WIND PRES REMARKS SAVANNAH ARPT CLEAR 77 73 87 NE8 30.06S HUNTER AAF CLEAR 77 77 100 NE5 30.03S FORT STEWART CLEAR 75 72 88 NE3 30.03S FOG STATESBORO PTCLDY 74 74 98 CALM 30.07S SYLVANIA NOT AVBL CLAXTON FAIR 72 72 100 CALM 30.06S ...CSRA...CENTRAL AND FAR SOUTHEAST GEORGIA... CITY SKY/WX TMP DP RH WIND PRES REMARKS THOMSON CLEAR 73 72 96 MISG 30.15R AUGUSTA-BUSH MOCLDY 73 71 93 CALM 30.09S AUGUSTA-DANIEL CLEAR 79 69 71 N3 30.11S SWAINSBORO FAIR 73 72 94 E3 30.08F VIDALIA CLEAR 75 75 100 NE3 30.07S EASTMAN FAIR 73 73 100 CALM 30.09S HAZLEHURST FAIR 76 76 100 CALM 30.05S ALMA CLEAR 73 72 96 CALM 30.04S WAYCROSS N/A 76 76 100 E3 30.04S JESUP FAIR 75 75 100 NE3 30.05R BAXLEY FAIR 73 73 100 CALM 30.05R BRUNSWICK CLEAR 77 77 100 N5 30.04S SAINT SIMONS PTCLDY 80 75 84 E9 30.03R $$ SCZ027-028-034-036>038-045-046-048>050-GAZ119-141-280900- ...LAKE AND SUPPLEMENTAL COASTAL OBSERVATIONS... STATION/POSITION TIME TEMP WIND PRES WAVE SWELL AIR SEA DIR/SP/G HT/PER HT/PER/DIR (UTC) (F) (DEG/KT/KT) (MB) (FT/S) (FT/S/D) WINYAH BAY 0745 77 350/ 5 1018.0S LAKE MURRAY 0700 78 40/ 1/ 3 1019.0F ACE BASIN NERRS 0700 75 CALM 1018.0S FORT PULASKI 0800 83 85 60/ 10/ 12 1018.1R SAPELO ISLAND 0800 77 50/ 3 1017.0S $$ ANZ835-935-AMZ111-154-330-350-352-354-370-450-454-472-280900- ...C-MAN AND BUOY OBSERVATIONS... STATION/POSITION TIME TEMP WIND PRES WAVE SWELL AIR SEA DIR/SP/G HT/PER HT/PER/DIR (UTC) (F) (DEG/KT/KT) (MB) (FT/S) (FT/S/D) BUOY 41004 0750 83 84 60/ 12/ 14 1016.9F 4/ 8 3/120/ 8 BUOY 41008 0750 83 85 80/ 14/ 16 1016.6R 4/ 9 2/100/ 9 FOLLY BEACH CMAN 0800 81 30/ 10/ 11 1018.0F CAPERS NEARSHORE 0708 83 84 70/ 10/ 14 1017.9F FRIPP NEARSHORE 0808 83 86 80/ 12/ 16 1017.2R STATION/POSITION TIME TEMP WIND PRES WAVE SWELL AIR SEA DIR/SP/G HT/PER HT/PER/DIR (UTC) (F) (DEG/KT/KT) (MB) (FT/S) (FT/S/D) 5E ST. MARYS GA 0701 85 N/A 4/ 9 FRYING PAN BUOY 0800 83 84 50/ 6/ 10 1017.8F BUOY 41025 0750 80 84 70/ 4/ 6 1018.8F 3/ 8 3/130/ 8 CAPE LOOKOUT NC 0800 80 70/ 4/ 4 1018.6F BUOY 41002 0750 82 84 50/ 14/ 16 1016.6F 4/ 8 3/100/ 8 BUOY 41010 NOT AVBL ST AUGUSTINE FL 0800 81 84 80/ 16/ 17 1016.5R $$

USA.gov is the U.S. government's official web portal to all federal, state and local government web resources and services.